This is the latest recevied weather packets stored in our database for station/object KK7KRZ. If no packets are shown the sender has not sent any weather packets the latest 1 day(s).
| Time | Temp. | Humidity | Pressure | Rain* | Wind** | Luminosity | Snow |
|---|---|---|---|---|---|---|---|
| 1778028288 | 18.33° C | 71% | 1014.8 hPa | 0 mm | 0.45 m/s, 175° | 40 W/m² | - |
| 1778027984 | 18.33° C | 71% | 1014.7 hPa | 0 mm | 0.89 m/s, 173° | 39 W/m² | - |
| 1778027681 | 17.78° C | 71% | 1014.8 hPa | 0 mm | 0 m/s | 46 W/m² | - |
| 1778027377 | 18.33° C | 70% | 1014.6 hPa | 0 mm | 0.45 m/s, 176° | 48 W/m² | - |
| 1778027073 | 18.33° C | 70% | 1014.7 hPa | 0 mm | 0 m/s | 49 W/m² | - |
| 1778026768 | 18.33° C | 70% | 1014.9 hPa | 0 mm | 0.45 m/s, 335° | 55 W/m² | - |
| 1778026466 | 18.33° C | 69% | 1014.8 hPa | 0 mm | 0.89 m/s, 124° | 43 W/m² | - |
| 1778026163 | 18.33° C | 68% | 1014.8 hPa | 0 mm | 0.45 m/s, 106° | 44 W/m² | - |
| 1778025860 | 18.89° C | 68% | 1014.8 hPa | 0 mm | 0.45 m/s, 129° | 46 W/m² | - |
| 1778025557 | 18.89° C | 67% | 1014.9 hPa | 0 mm | 0.45 m/s, 228° | 59 W/m² | - |
| 1778025255 | 18.89° C | 70% | 1015.1 hPa | 0 mm | 0 m/s | 80 W/m² | - |
| 1778024952 | 18.89° C | 67% | 1014.9 hPa | 0 mm | 0.45 m/s, 112° | 101 W/m² | - |
| 1778024649 | 18.89° C | 66% | 1014.9 hPa | 0 mm | 1.34 m/s, 314° | 113 W/m² | - |
| 1778024346 | 18.89° C | 68% | 1015.3 hPa | 0 mm | 0.45 m/s, 167° | 98 W/m² | - |
| 1778024044 | 18.33° C | 68% | 1015.4 hPa | 0 mm | 0 m/s | 88 W/m² | - |
| 1778023741 | 18.89° C | 69% | 1015.4 hPa | 0 mm | 0 m/s | 81 W/m² | - |
| 1778023439 | 18.89° C | 69% | 1015.2 hPa | 0 mm | 0 m/s | 81 W/m² | - |
| 1778023135 | 18.89° C | 69% | 1015.3 hPa | 0 mm | 0 m/s | 81 W/m² | - |
| 1778022833 | 18.89° C | 68% | 1015.4 hPa | 0 mm | 0 m/s | 80 W/m² | - |
| 1778022531 | 18.89° C | 66% | 1015.5 hPa | 0 mm | 1.34 m/s, 122° | 89 W/m² | - |
| 1778022228 | 18.89° C | 66% | 1015.5 hPa | 0 mm | 0 m/s | 229 W/m² | - |
| 1778021924 | 18.89° C | 67% | 1015.6 hPa | 0 mm | 0.45 m/s, 141° | 193 W/m² | - |
| 1778021622 | 19.44° C | 66% | 1015.4 hPa | 0 mm | 0.89 m/s, 209° | 217 W/m² | - |
| 1778021316 | 20.56° C | 66% | 1015.4 hPa | 0 mm | 0 m/s | 395 W/m² | - |
| 1778021015 | 18.89° C | 68% | 1015.6 hPa | 0 mm | 0 m/s | 595 W/m² | - |
* Rain latest hour (hover to see other rain measurements)
** Current wind speed in m/s (hover to see current wind gust speed)